{"data":{"norad_id":66084,"intl_designator":"2025-235AC","name":"STARLINK-35379","alt_names":[],"object_type":"PAYLOAD","status":"ACTIVE","operator":null,"country":"US","launch_date":"2025-10-19","launch_site_code":"AFETR","launch_vehicle":null,"mission":null,"orbit_class":"UNKNOWN","rcs_meters":null,"size_class":null,"mass_kg":null,"dimensions":null,"purposes":["comms"],"wikipedia_slug":null,"has_3d_model":false,"image_url":null,"decayed_at":null,"tle_current":{"epoch":"2026-05-25T03:23:18.841920Z","epoch_age_seconds":58964,"freshness":"FRESH","line1":"1 66084U 25235AC  26145.14119030  .00028550  00000+0  97253-3 0  9996","line2":"2 66084  53.1608 250.3586 0001823  82.4038 277.7169 15.30194420 34620","mean_motion":15.3019442,"eccentricity":0.0001823,"inclination_deg":53.1608,"raan_deg":250.3586,"arg_perigee_deg":82.4038,"mean_anomaly_deg":277.7169,"bstar":0.00097253,"rev_number":3462,"period_min":94.105688870568,"perigee_km":473.98236122461,"apogee_km":476.48109946369,"semimajor_km":6853.3687303442,"source":"CELESTRAK","updated_at":"2026-05-25T13:38:21.026013Z"}}}